Temp
13 15 15 14 14 14 13 13 13 12 11 10 10 10 10 10 10 10 10 10 9 9 9 9 9 9 9 9 9 8 8 7 7 5 4 4 3 3 3 2 2 2 1
14 15 15 14 15 14 14 13 13 13 12 11 11 11 10 10 10 10 9 9 9 9 9 9 9 9 9 8 8 8 8 7 7 6 5 3 2 2 2 2 1 1 1
15 15 15 15 15 14 14 14 13 13 12 11 10 10 10 10 9 9 9 9 9 9 9 9 9 9 8 8 8 8 7 7 7 6 5 4 4 1 1 1 1 1 -0
15 15 15 15 15 15 14 14 13 13 12 12 11 11 10 10 10 10 9 9 9 9 9 9 9 9 8 8 8 8 7 7 7 6 6 5 4 2 1 -1 -0 -0 -1
16 16 16 16 16 15 14 14 13 13 13 13 12 12 10 10 10 10 9 9 9 9 9 9 9 9 9 8 8 8 8 7 7 6 6 5 4 3 2 2 -1 -1 -1
17 16 16 16 16 15 15 14 14 13 13 13 12 12 11 11 10 10 9 9 9 9 9 9 8 8 9 9 8 8 8 7 7 6 6 5 4 3 1 0 -1 -1 -3
19 18 17 16 16 16 16 15 14 14 13 13 13 12 12 11 11 10 9 9 9 9 9 9 9 9 9 8 8 8 8 7 7 6 6 5 4 3 2 0 -1 -1 -2
20 20 19 17 17 16 16 16 16 15 14 13 13 13 12 11 10 10 10 10 10 10 9 9 9 9 9 8 8 7 7 7 6 6 5 5 4 3 1 -0 -2 -2 -2
21 21 20 19 17 16 16 16 16 15 14 14 13 13 12 11 11 10 10 10 10 9 9 9 8 8 8 8 8 7 7 6 6 6 5 4 3 2 1 -1 -1 -3 -1
23 23 21 20 18 17 16 16 15 16 15 14 14 14 13 12 11 11 10 10 10 9 9 9 8 8 8 7 8 7 6 6 6 5 5 4 3 2 1 -0 -1 -2 -3
23 22 22 21 19 18 17 16 15 15 14 14 14 13 13 12 11 11 11 10 10 9 9 9 8 8 8 7 8 7 6 6 5 5 5 3 2 2 1 -1 -1 -2 -2
22 22 21 21 21 20 18 17 16 15 15 14 14 13 13 12 12 11 11 10 10 10 9 9 8 9 8 7 7 7 6 5 5 4 4 3 2 1 0 -1 -2 -2 -3
22 22 21 22 22 21 20 18 17 15 14 14 13 13 12 12 12 11 10 10 10 10 9 9 9 9 8 8 7 7 6 5 4 4 4 3 1 1 0 -1 -2 -2 -3
22 22 22 21 21 20 20 19 18 16 15 14 13 13 13 12 11 11 11 10 10 10 9 9 9 8 8 7 7 6 5 4 4 3 3 2 0 -0 -1 -2 -3 -3 -4
19 20 21 20 20 19 19 18 18 17 16 15 14 13 13 12 11 11 11 10 9 10 10 9 9 8 8 7 6 6 5 4 3 3 2 1 -1 -1 -2 -3 -4 -4 -5
17 18 19 19 19 19 19 18 18 18 17 16 15 13 12 12 11 11 10 10 10 9 9 9 9 9 8 8 6 5 4 4 3 2 1 -0 -2 -2 -3 -4 -5 -5 -5
15 16 17 19 19 18 19 18 18 17 17 16 15 14 12 12 11 10 10 10 10 9 9 9 9 9 8 8 6 5 4 3 3 2 1 -1 -2 -2 -3 -4 -5 -5 -5
14 15 16 17 18 19 19 18 17 16 16 15 15 14 12 12 11 10 10 10 10 9 9 9 9 8 8 7 6 5 3 3 2 1 0 -2 -2 -3 -4 -4 -5 -5 -6
14 15 15 17 18 19 19 17 16 15 15 14 14 13 12 12 12 10 10 10 10 9 9 9 9 8 8 7 6 4 3 2 1 0 -0 -2 -2 -3 -4 -5 -5 -6 -6
14 14 15 16 16 17 17 15 14 14 13 13 12 12 11 11 11 10 10 10 9 9 9 8 8 7 7 6 5 4 2 2 1 0 -1 -2 -3 -4 -5 -5 -6 -6 -7
12 13 14 14 14 14 13 13 12 12 12 12 12 11 10 10 10 9 9 9 9 9 8 7 7 7 6 5 5 3 3 2 1 0 -1 -2 -3 -4 -5 -5 -6 -7 -7
12 12 12 12 12 12 12 12 12 12 12 12 11 11 11 10 10 9 9 9 8 8 7 7 6 6 5 4 3 2 2 1 -0 -0 -1 -2 -3 -4 -5 -5 -6 -7 -8
11 11 11 11 11 11 11 11 11 11 11 11 11 10 10 10 9 9 8 8 7 7 7 7 6 6 4 3 2 2 0 -1 -1 -1 -3 -3 -4 -5 -5 -6 -7 -8 -9
11 11 11 11 11 11 11 11 11 11 11 11 11 10 10 9 9 8 7 7 7 7 6 6 5 5 4 2 2 2 -1 -2 -2 -3 -4 -4 -4 -5 -5 -6 -7 -8 -9
9 9 10 10 10 10 11 11 11 11 11 11 10 10 10 9 9 8 7 7 7 7 8 7 6 6 4 4 4 3 1 -1 -2 -2 -4 -4 -5 -5 -6 -6 -7 -8 -9
8 8 8 8 8 8 8 8 9 9 9 9 9 8 8 8 8 8 7 7 6 6 5 5 5 5 4 4 3 2 -0 -2 -2 -3 -4 -4 -5 -5 -6 -6 -7 -8 -9
Height
1539 1542 1545 1549 1553 1557 1560 1564 1567 1570 1574 1577 1580 1584 1587 1590 1593 1595 1598 1600 1603 1605 1606 1608 1608 1609 1609 1609 1608 1607 1607 1606 1605 1603 1602 1602 1601 1601 1600 1599 1598 1597 1596
1534 1538 1541 1544 1548 1552 1557 1562 1566 1569 1572 1576 1579 1582 1585 1588 1591 1593 1595 1598 1600 1603 1605 1606 1607 1607 1607 1608 1608 1607 1606 1605 1604 1603 1602 1602 1602 1599 1598 1597 1597 1596 1595
1529 1533 1536 1539 1544 1547 1552 1557 1563 1566 1570 1574 1578 1581 1584 1587 1588 1590 1592 1595 1598 1600 1602 1603 1605 1605 1605 1606 1606 1606 1605 1604 1603 1602 1602 1600 1601 1598 1596 1595 1595 1594 1593
1524 1528 1532 1535 1538 1543 1548 1553 1558 1562 1566 1571 1574 1577 1580 1581 1584 1587 1590 1592 1595 1597 1599 1601 1602 1603 1603 1604 1604 1605 1604 1603 1601 1600 1598 1597 1597 1598 1598 1595 1593 1592 1591
1516 1520 1524 1529 1534 1538 1542 1547 1552 1557 1562 1566 1569 1573 1577 1580 1582 1584 1587 1589 1592 1594 1596 1598 1600 1601 1601 1601 1601 1602 1602 1601 1600 1598 1596 1595 1594 1594 1595 1595 1593 1590 1589
1508 1514 1520 1525 1529 1533 1536 1541 1545 1550 1555 1561 1564 1567 1571 1574 1577 1580 1583 1585 1588 1590 1593 1595 1597 1598 1599 1599 1599 1599 1599 1599 1598 1595 1594 1593 1592 1591 1592 1592 1591 1590 1588
1503 1507 1512 1517 1521 1525 1529 1534 1538 1542 1548 1553 1557 1561 1565 1570 1573 1575 1579 1581 1584 1585 1588 1590 1592 1595 1596 1597 1597 1596 1596 1596 1595 1593 1591 1590 1589 1589 1589 1589 1589 1588 1587
1498 1502 1506 1510 1514 1519 1524 1528 1531 1535 1540 1546 1550 1555 1559 1564 1569 1571 1574 1577 1580 1583 1585 1587 1589 1591 1592 1594 1595 1594 1594 1593 1592 1590 1589 1588 1587 1586 1586 1586 1587 1586 1585
1494 1498 1502 1505 1508 1513 1518 1522 1526 1529 1533 1538 1544 1548 1553 1557 1561 1564 1569 1573 1576 1579 1581 1584 1586 1588 1589 1590 1591 1591 1591 1591 1590 1587 1586 1584 1583 1583 1582 1583 1583 1584 1584
1491 1496 1498 1500 1502 1507 1513 1517 1521 1524 1528 1532 1536 1540 1545 1551 1555 1559 1563 1567 1571 1573 1576 1579 1582 1584 1585 1587 1587 1587 1587 1588 1587 1586 1584 1582 1581 1580 1579 1580 1579 1579 1579
1490 1494 1496 1497 1499 1502 1505 1509 1513 1518 1522 1526 1530 1535 1538 1544 1548 1552 1556 1561 1565 1567 1570 1573 1575 1578 1581 1581 1582 1582 1583 1583 1584 1583 1581 1580 1579 1577 1577 1577 1576 1575 1575
1489 1491 1493 1494 1496 1497 1499 1502 1506 1510 1515 1520 1524 1528 1533 1538 1541 1544 1549 1554 1558 1562 1564 1567 1569 1570 1573 1576 1576 1577 1578 1579 1579 1580 1579 1578 1577 1575 1574 1574 1574 1573 1572
1485 1486 1488 1490 1491 1493 1494 1497 1500 1504 1509 1513 1517 1521 1524 1529 1533 1538 1543 1547 1551 1555 1557 1560 1561 1563 1567 1569 1570 1571 1573 1574 1574 1575 1575 1575 1574 1573 1572 1571 1571 1570 1569
1481 1482 1483 1485 1487 1489 1491 1493 1496 1499 1502 1505 1509 1512 1516 1521 1526 1531 1535 1540 1544 1547 1551 1553 1556 1557 1559 1562 1564 1565 1566 1568 1570 1570 1570 1571 1570 1570 1569 1569 1568 1568 1567
1478 1478 1478 1480 1482 1484 1486 1489 1491 1493 1496 1498 1501 1504 1510 1514 1519 1523 1527 1532 1536 1540 1544 1546 1549 1551 1552 1555 1557 1559 1561 1562 1565 1565 1566 1567 1566 1567 1566 1566 1566 1566 1565
1475 1475 1475 1475 1477 1479 1480 1482 1485 1487 1490 1492 1494 1497 1501 1506 1509 1514 1519 1523 1527 1531 1534 1538 1541 1543 1545 1548 1550 1553 1556 1557 1559 1560 1562 1563 1562 1563 1563 1563 1563 1562 1561
1472 1472 1471 1471 1472 1473 1475 1476 1479 1482 1484 1486 1488 1490 1493 1497 1501 1505 1510 1514 1518 1522 1526 1530 1533 1536 1539 1541 1544 1547 1550 1552 1553 1553 1557 1558 1558 1559 1559 1560 1560 1558 1557
1470 1470 1469 1469 1468 1468 1469 1470 1473 1475 1478 1480 1482 1484 1487 1490 1494 1498 1502 1507 1510 1513 1517 1521 1525 1529 1532 1535 1538 1540 1543 1547 1548 1549 1552 1552 1554 1555 1555 1556 1556 1555 1553
1468 1467 1466 1465 1465 1464 1464 1465 1468 1471 1474 1476 1479 1481 1483 1485 1488 1491 1496 1499 1503 1506 1510 1514 1518 1522 1525 1528 1531 1534 1538 1540 1542 1544 1546 1546 1548 1550 1550 1551 1551 1551 1549
1467 1466 1465 1463 1462 1462 1462 1463 1466 1469 1472 1474 1477 1479 1481 1482 1484 1487 1489 1493 1496 1500 1504 1507 1512 1516 1519 1521 1524 1528 1532 1534 1536 1538 1539 1541 1542 1544 1546 1546 1547 1547 1546
1466 1465 1464 1463 1462 1462 1463 1464 1466 1469 1471 1473 1475 1476 1478 1479 1481 1483 1486 1489 1491 1493 1498 1502 1504 1507 1512 1515 1517 1521 1525 1528 1530 1532 1534 1536 1537 1539 1541 1542 1542 1543 1542
1466 1465 1465 1465 1465 1465 1465 1466 1468 1469 1471 1472 1473 1474 1475 1475 1476 1478 1480 1482 1486 1488 1490 1493 1497 1500 1503 1507 1512 1514 1518 1522 1525 1527 1529 1531 1534 1535 1536 1538 1538 1538 1538
1466 1466 1467 1466 1467 1467 1467 1468 1469 1469 1470 1471 1471 1472 1471 1472 1472 1473 1474 1476 1478 1481 1483 1485 1488 1492 1496 1499 1504 1509 1512 1515 1520 1522 1525 1527 1530 1532 1532 1533 1534 1534 1535
1466 1467 1468 1468 1468 1468 1468 1468 1468 1468 1469 1469 1469 1469 1469 1469 1469 1469 1470 1471 1473 1475 1476 1479 1482 1485 1488 1492 1496 1499 1504 1509 1512 1516 1518 1521 1524 1527 1528 1528 1529 1530 1531
1466 1467 1467 1467 1468 1467 1467 1466 1466 1466 1466 1466 1466 1465 1465 1465 1465 1465 1465 1465 1466 1469 1470 1472 1475 1476 1478 1482 1487 1490 1493 1499 1505 1509 1512 1515 1518 1521 1522 1523 1524 1525 1527
1465 1465 1465 1466 1466 1465 1464 1463 1462 1461 1461 1460 1460 1460 1459 1459 1460 1460 1459 1460 1461 1461 1463 1465 1466 1470 1473 1476 1480 1484 1486 1491 1497 1500 1505 1508 1512 1514 1516 1517 1519 1520 1522
Wind_Speed
18 19 20 23 23 21 24 22 22 24 28 29 27 24 21 20 18 15 15 14 12 11 9 7 6 4 2 2 4 6 7 9 9 7 4 4 6 7 8 9 10 11 10
22 23 23 24 25 25 25 24 23 25 28 29 27 24 22 21 18 16 16 15 14 13 11 8 7 5 3 2 4 5 7 8 8 7 6 2 6 10 10 10 9 9 8
25 27 27 26 25 28 28 28 26 25 27 28 27 24 22 21 22 21 19 17 16 15 13 11 9 7 5 3 4 4 7 8 9 8 5 3 3 4 9 9 8 7 6
25 27 29 28 26 26 26 29 30 27 27 27 29 28 28 29 27 22 19 18 18 17 15 13 11 8 6 5 5 5 5 8 10 9 8 7 10 4 3 7 8 7 6
26 27 30 29 23 24 25 29 32 32 29 27 29 28 30 29 23 23 22 20 19 19 17 15 13 10 8 6 7 6 6 7 9 9 9 7 6 6 7 6 5 6 7
23 26 25 27 26 21 23 27 30 35 33 30 28 29 29 29 26 27 25 23 21 20 19 18 16 13 10 9 8 6 7 8 9 10 9 7 5 5 4 4 5 6 6
19 22 26 29 29 25 23 26 29 35 37 33 29 29 28 28 26 25 26 25 22 22 21 20 17 14 13 12 10 8 8 9 10 10 10 9 7 5 5 4 4 4 6
17 20 23 26 27 24 23 25 29 33 37 36 33 30 27 29 29 26 27 25 22 19 19 18 18 16 14 12 12 11 10 10 10 11 10 9 8 7 5 4 3 4 5
14 18 19 21 25 25 24 24 27 30 35 37 36 34 32 31 31 29 28 24 23 20 18 16 17 16 16 14 13 13 12 11 11 11 10 10 9 7 6 5 4 3 4
13 14 16 19 22 21 22 22 25 29 30 35 38 37 34 31 30 30 29 28 25 23 19 18 16 17 17 16 15 15 14 12 11 11 10 9 9 8 7 7 7 7 4
12 14 16 17 17 17 19 21 24 28 32 33 37 39 37 33 32 31 31 30 28 26 23 20 16 16 20 17 17 18 16 15 12 12 12 9 9 9 8 6 7 7 6
8 12 15 16 17 17 19 20 22 25 28 31 32 36 38 36 35 33 34 32 31 28 26 25 23 21 23 21 19 20 19 16 12 12 12 11 9 9 7 7 7 7 8
9 14 15 17 18 18 18 18 20 22 26 29 32 32 34 38 38 35 34 34 33 31 30 28 28 22 28 26 23 23 21 19 15 12 13 13 9 9 8 8 7 8 9
12 12 15 18 20 20 19 18 17 17 21 26 29 32 32 32 36 37 33 35 35 35 33 32 29 27 31 30 29 26 24 20 16 13 14 13 9 9 9 8 7 8 9
7 10 13 17 20 20 21 19 17 17 17 21 25 29 29 31 32 35 35 32 37 36 35 35 34 31 33 33 34 29 26 21 17 15 15 13 10 10 8 7 8 9 10
5 8 11 14 17 21 23 22 19 19 17 17 19 23 26 28 31 33 33 30 33 37 39 37 37 31 35 35 35 32 27 22 18 15 17 14 11 11 9 8 9 10 11
3 5 7 9 11 13 21 24 21 19 16 16 16 19 20 24 27 30 32 32 32 37 39 38 38 34 35 37 36 34 29 23 20 15 19 15 14 12 11 10 10 12 13
4 6 7 7 8 9 12 16 19 19 16 16 15 17 18 19 22 27 29 30 32 34 36 37 38 36 36 36 36 36 27 22 20 17 18 15 15 13 12 11 12 13 14
7 8 9 9 9 9 9 10 13 14 15 15 14 14 16 16 17 23 26 29 31 33 34 34 36 34 34 35 36 34 28 24 20 19 19 16 16 15 13 13 13 13 14
7 8 8 7 6 6 4 2 5 8 8 8 9 11 13 14 16 18 22 27 29 30 32 33 34 33 33 35 36 34 26 24 21 21 19 18 17 15 14 13 13 12 11
11 11 10 10 10 11 10 7 3 2 1 1 3 6 10 12 13 17 22 24 28 29 32 33 33 33 33 35 35 31 27 24 22 21 20 19 18 16 14 14 13 11 10
13 13 13 12 12 11 11 10 7 5 4 3 5 6 8 12 14 17 20 23 28 31 33 35 35 35 35 35 34 29 26 23 21 20 19 18 17 15 14 13 13 11 8
13 13 12 10 9 8 7 6 4 3 3 4 5 8 11 13 14 18 22 25 28 33 35 35 36 36 37 37 33 30 26 23 22 21 19 17 16 15 14 13 12 10 8
7 7 7 8 7 6 5 5 6 6 7 8 9 9 11 12 15 18 22 25 28 31 34 36 36 37 39 38 35 31 30 27 25 23 21 20 18 15 14 13 12 11 10
5 6 7 7 6 6 8 9 10 11 12 14 15 16 16 14 16 18 21 23 24 26 27 30 35 38 41 39 34 33 35 31 27 26 24 24 21 17 15 14 14 13 12
6 8 10 10 10 10 10 11 13 14 15 18 19 20 21 21 20 20 22 23 25 24 27 30 32 33 36 38 33 34 33 27 29 29 28 24 21 17 15 16 16 15 14
Wind_Direction
205 206 203 203 204 204 205 201 198 196 195 193 193 193 191 189 192 195 204 212 221 220 222 237 247 255 280 303 326 339 1 9 5 358 351 311 284 280 288 299 314 329 337
214 211 207 206 211 211 211 209 206 204 202 202 200 200 195 195 200 202 206 213 216 219 228 238 241 247 243 262 313 328 346 351 346 328 310 249 296 277 284 294 311 324 336
213 215 214 211 214 217 216 216 213 210 209 206 207 209 206 205 207 207 209 210 213 219 227 233 237 243 239 264 299 310 330 333 336 331 291 285 245 261 280 289 302 320 328
218 222 219 219 220 222 221 220 218 217 214 213 212 218 217 210 212 214 213 216 216 218 224 227 234 239 245 271 291 300 311 331 332 332 319 290 267 237 262 283 289 305 312
224 221 222 226 229 229 225 219 219 218 219 216 219 221 223 222 221 216 217 220 218 219 220 225 231 238 245 261 276 286 305 329 336 338 332 313 292 270 245 259 252 282 293
223 224 226 225 223 231 220 218 219 219 219 216 220 220 222 220 218 219 217 218 218 221 221 225 230 235 241 251 261 279 294 316 334 344 345 329 307 285 259 243 245 240 263
223 221 222 219 220 220 216 215 217 219 220 218 222 221 222 224 225 224 222 220 221 224 223 225 229 234 242 251 260 269 280 307 327 341 346 338 324 308 286 262 252 254 267
225 227 230 230 229 223 217 215 216 218 221 222 224 225 223 223 226 229 226 227 231 233 228 228 229 233 241 253 262 266 280 299 319 331 339 338 329 318 305 276 263 283 265
222 231 233 239 238 229 225 222 221 222 223 223 225 228 225 223 223 227 226 229 232 230 226 230 234 237 241 249 259 261 271 290 308 321 327 334 329 318 310 300 288 262 283
204 221 234 241 246 241 233 229 227 229 230 226 226 230 229 226 227 229 227 225 227 226 225 227 231 238 244 249 258 261 265 280 297 307 314 319 318 311 308 308 311 312 298
209 227 239 251 259 255 242 234 229 227 229 231 230 231 230 226 230 230 228 226 226 225 224 227 219 245 249 246 251 260 262 273 280 297 303 303 305 304 305 306 311 316 324
259 255 256 258 261 260 252 242 234 231 231 234 233 234 234 230 233 233 229 226 225 225 227 229 231 236 241 247 247 257 258 259 277 282 293 296 295 297 297 302 306 313 320
252 261 250 247 251 252 255 254 248 243 236 238 236 234 235 233 234 236 232 228 225 224 226 229 232 233 244 245 246 251 253 255 259 268 286 284 279 284 287 292 297 307 317
250 258 249 240 245 251 255 258 259 253 244 240 238 238 239 237 235 235 236 231 229 227 227 230 235 237 241 244 244 249 248 251 260 258 268 275 263 270 278 285 290 303 314
252 257 260 251 248 255 261 261 263 264 254 246 243 241 240 237 236 235 235 234 231 232 231 232 231 243 239 243 244 246 248 245 252 253 260 266 254 259 265 272 285 299 309
259 268 267 266 258 252 257 264 264 265 259 253 253 244 238 234 235 234 233 235 230 230 231 234 232 245 241 243 244 247 243 245 247 250 256 255 245 257 259 259 271 288 303
305 302 289 280 275 263 252 257 261 259 251 248 247 242 235 234 235 232 231 231 230 229 230 235 233 241 241 243 243 247 243 242 247 243 251 244 245 250 257 261 273 289 302
3 336 326 306 297 285 266 255 247 246 241 241 241 237 231 232 234 233 229 229 232 232 231 234 234 239 242 241 242 244 239 240 243 233 244 236 244 249 254 262 274 288 302
22 7 349 333 316 302 285 259 248 239 236 238 241 237 232 230 235 236 232 232 235 232 231 234 235 239 240 238 242 241 234 238 234 234 240 234 241 247 250 259 274 288 294
53 35 20 8 345 331 305 218 212 224 233 242 249 248 245 244 242 239 233 234 236 236 233 234 236 239 238 237 241 235 231 234 231 233 233 233 237 242 246 257 273 280 283
69 61 60 60 66 72 73 76 105 165 189 268 278 275 261 252 247 244 240 238 237 233 234 235 236 236 236 233 236 234 238 235 232 234 233 235 235 235 243 255 266 269 275
75 71 69 74 72 70 72 69 70 64 30 339 305 292 277 256 243 242 241 240 239 236 234 234 234 233 232 228 228 230 234 231 232 236 235 232 229 231 242 253 263 264 258
67 64 61 60 64 62 61 55 38 24 355 344 316 295 281 271 258 252 246 240 236 235 236 234 233 232 227 222 223 229 227 220 225 229 229 228 225 228 242 253 254 248 254
59 51 42 40 33 21 358 336 316 309 300 294 292 291 285 276 265 254 246 243 242 241 239 236 234 232 227 221 220 224 217 216 219 219 215 216 217 230 240 243 239 242 252
25 9 360 355 342 317 303 296 291 287 280 275 273 275 277 273 269 260 255 250 246 249 254 252 246 240 230 229 227 234 222 218 221 217 212 209 215 227 236 231 232 239 247
333 329 328 324 319 317 308 295 288 282 275 273 272 271 270 268 264 260 258 257 252 251 253 249 250 253 242 234 231 236 222 219 219 212 213 213 219 230 233 230 231 237 241